Hourly Data Report for October 10, 2013

All times are specified in Local Standard Time (LST). Add 1 hour to adjust for Daylight Saving Time where and when it is observed.

GRISE FIORD CLIMATE
NUNAVUT

76°25'22.040" N
82°54'08.020" W
44.50 m
2402351
71971
NGC

Download Data

Hourly Data (October 2013)
Hourly Data Report for October 10, 2013
Temp Definition
°C
Dew Point Temp Definition
°C
Rel Hum Definition
%
Wind Dir Definition
10's deg

Wind Spd Definition
km/h
Visibility Definition
km
Stn Press Definition
kPa
Hmdx Definition


Wind Chill Definition


Weather Definition


TIME
00:00 -8.1 -14.8 58 6 33   100.92   -17 LegendNANA
01:00 -7.8 -14.9 57 3 32   100.97   -17 LegendNANA
02:00 -7.5 -15.1 54 35 44   100.93   -18 LegendNANA
03:00 -7.6 -14.6 57 15 9   100.95   -12 LegendNANA
04:00 -9.8 -15.1 65 11 4   101.05   -12 LegendNANA
05:00 -9.7 -15.4 63 3 7   101.11   -14 LegendNANA
06:00 -10.4 -15.7 65 4 11   101.15   -16 LegendNANA
07:00 -7.7 -14.4 59 18 17   101.14   -14 LegendNANA
08:00 -9.5 -13.6 72 14 15   101.18   -16 LegendNANA
09:00 -8.8 -14.7 62 22 6   101.19   -12 LegendNANA
10:00 -9.3 -15.0 63 15 15   101.20   -16 LegendNANA
11:00 -8.6 -15.8 56 10 13   101.25   -15 LegendNANA
12:00 -8.8 -16.4 54 13 4   101.27   -11 LegendNANA
13:00 -7.9 -16.4 50 16 2   101.31   -9 LegendNANA
14:00 -8.4 -16.9 50 3 6   101.31   -12 LegendNANA
15:00 -8.5 -16.9 51 8 6   101.34   -12 LegendNANA
16:00 -9.0 -17.2 51 8 11   101.36   -14 LegendNANA
17:00 -9.1 -17.2 52 9 11   101.38   -15 LegendNANA
18:00 -10.4 -17.5 56 5 11   101.39   -16 LegendNANA
19:00 -10.5 -16.2 63 12 11   101.38   -16 LegendNANA
20:00 -11.2 -16.7 64 12 6   101.39   -15 LegendNANA
21:00 -11.3 -17.3 61 10 9   101.38   -16 LegendNANA
22:00 -11.3 -17.6 60 8 9   101.38   -16 LegendNANA
23:00 -10.8 -15.0 71 13 6   101.40   -14 LegendNANA

Notes on Data Quality.

Legend

  • E = Estimated
  • M = Missing
  • NA = Not Available
  • ‡ = Partner data that is not subject to review by the National Climate Archives
Date modified: